Torna al catalogo

CZ-2C DEB

AttivoSSO
NORAD 36092·DEBRIS·🇨🇳 China

Lanciato Nov 12, 2009 da Jiuquan Satellite Launch Center

Loading…

Prossimi Passaggi (prossime 24 ore)

TLE

AggiornatoSource: Space-Track

Epoca: Sep 13, 2026, 23:18 UTC

1 36092U 09061E   26256.97091064  .00001474  00000-0  41785-3 0  9997
2 36092  98.7586 267.5861 0121631  93.3865 297.7893 14.42810075878154

Traccia CZ-2C DEB in tempo reale con AllMySat

Download on the App Store